Location: La Silve
(44.2414°N, 5.8889°E)
Time: 08:10:08
(UTC+00:00)

CENTAUR R/B - Pass Details

Date: 18 April 2021
Orbit: 742 x 1446 km, 63.4° (Epoch: 18 April)

Event Time Altitude Azimuth Distance (km) Brightness Sun altitude
Rises 20:33:10 0° 308° (NW) 4,344 7.5 -20.9°
Reaches altitude 10° 20:37:39 10° 286° (WNW) 3,466 6.3 -21.5°
Maximum altitude 20:41:43 14° 257° (WSW) 3,188 5.6 -22.0°
Drops below altitude 10° 20:45:54 10° 229° (SW) 3,551 5.5 -22.6°
Sets 20:50:39 0° 207° (SSW) 4,522 5.8 -23.2°
